Regional Weather Roundup
Issued by NWS Columbia, SC

Current Version | Previous Version | Graphics & Text | Print | Product List | Glossary On
Versions: 1 2 3 4 5 6 7 8 9 10 11 12 13 14 15 16 17 18 19 20 21 22 23 24 25 26 27 28 29 30 31 32 33 34 35 36 37 38 39 40 41 42 43 44 45 46 47 48 49 50
000
ASUS42 KCAE 051510
RWRCAE
REGIONAL WEATHER ROUNDUP
NATIONAL WEATHER SERVICE COLUMBIA SC
1100 AM EDT WED AUG 05 2020

NOTE: "FAIR" INDICATES FEW OR NO CLOUDS BELOW 12,000 FEET WITH NO
SIGNIFICANT WEATHER AND/OR OBSTRUCTIONS TO VISIBILITY.

NOT ALL STATIONS ARE QUALITY CONTROLLED BY THE NATIONAL
WEATHER SERVICE. USE DATA WITH CAUTION...ESPECIALLY
DEWPOINT OBSERVATIONS.

SCZ001>056-GAZ040-063>065-077-051600-
...UPSTATE SOUTH CAROLINA...

CITY           SKY/WX    TMP DP  RH WIND       PRES   REMARKS
ANDERSON       SUNNY     84  70  62 E9        30.06R
LIBERTY        MOSUNNY   83  72  69 SE5       30.06S
SPARTANBURG    MOSUNNY   82  68  61 CALM      30.07S
CLEMSON        SUNNY     81  71  71 SE3       30.07R
GREENVILLE     SUNNY     82  72  71 E7        30.09R
GREENWOOD      SUNNY     84  74  71 N7        30.07S
GREER          SUNNY     82  69  64 E5        30.09R
ROCK HILL      SUNNY     85  72  65 VRB7      30.09R
CHESTER        PTSUNNY   84  70  61 E5        30.09S
LAURENS        SUNNY     82  72  69 N5        30.07R


...CENTRAL SOUTH CAROLINA...

CITY           SKY/WX    TMP DP  RH WIND       PRES   REMARKS
COLUMBIA APT   MOSUNNY   83  72  69 E8        30.05S
COLUMBIA OWENS MOSUNNY   84  73  69 CALM      30.07R
MCENTIRE ANGB  PTSUNNY   82  78  87 E7        30.07R
ORANGEBURG     MOSUNNY   80  74  81 E6        30.05S
SUMTER SHAW    CLOUDY    73  73 100 E6        30.11S
NEWBERRY       MOSUNNY   84  75  74 E3        30.10R
AIKEN          FAIR      83  74  73 CALM      30.07R
BARNWELL       FAIR      86  75  70 SE6       30.04S HX  95
MANNING        RAIN      73  73 100 CALM      30.08R
CAMDEN         FAIR      73  72  94 E9        30.10R
LANCASTER      MOSUNNY   84  73  70 CALM      30.08R
WINNSBORO      CLOUDY    82  73  74 E9        30.07S


...EASTERN AND COASTAL SOUTH CAROLINA...

CITY           SKY/WX    TMP DP  RH WIND       PRES   REMARKS
MYRTLE BEACH   MOSUNNY   81  77  88 VRB5      30.09S
N MYRTLE BCH   LGT RAIN  77  75  93 CALM      30.09S
CONWAY         FAIR      77  73  88 CALM      30.11R
MARION         RAIN      70  70 100 CALM      30.11S
HARTSVILLE     FAIR      72  70  94 S6        30.10S
FLORENCE       TSTM      75  72  90 SE3       30.11R FOG
CHARLESTON APT PTSUNNY   87  78  74 S5        30.03S HX 100
MOUNT PLEASANT PTSUNNY   86  81  84 VRB7      30.04R HX 102
WALTERBORO     MOSUNNY   88  75  66 S6        30.04S HX  97
BEAUFORT       MOSUNNY   91  78  65 SE3       30.02S HX 106
HILTON HEAD    PTSUNNY   88  79  74 S6        30.03S HX 102


...EASTERN GEORGIA...

CITY           SKY/WX    TMP DP  RH WIND       PRES   REMARKS
AUGUSTA BUSH F MOSUNNY   87  74  64 CALM      30.03R HX  95
AUGUSTA DANIEL SUNNY     86  72  62 VRB3      30.05S
THOMSON        SUNNY     83  75  75 SE6       30.05R
WASHINGTON     FAIR      82  73  74 CALM      30.05R
CLAXTON        FAIR      86  75  68 CALM      30.03S HX  95
SYLVANIA       SUNNY     86  74  69 CALM      30.04S
STATESBORO     SUNNY     85  71  63 CALM      30.03S
SAVANNAH       MOSUNNY   88  75  65 SW5       30.03S HX  97


...SOUTHERN NORTH CAROLINA...

CITY           SKY/WX    TMP DP  RH WIND       PRES   REMARKS
CHARLOTTE      MOSUNNY   85  67  54 SE7       30.09R
MONROE         PTSUNNY   85  72  65 VRB5      30.08R
ROCKINGHAM     CLOUDY    78  69  72 S9        30.10R
ASHEVILLE      MOSUNNY   75  68  78 CALM      30.14F

$$




USA.gov is the U.S. government's official web portal to all federal, state and local government web resources and services.